Regional Weather Roundup
Issued by NWS

Home | Current Version | Previous Version | Graphics & Text | Print | Product List | Glossary On
Versions: 1 2 3 4 5 6 7 8 9 10 11 12 13 14 15 16 17 18 19 20 21 22 23 24 25 26 27 28 29 30 31 32 33 34 35 36 37 38 39 40 41 42 43 44 45 46 47 48 49 50
000
ASUS43 KFSD 211610
RWRSD

WEATHER ROUNDUP FOR SOUTH DAKOTA
NATIONAL WEATHER SERVICE SIOUX FALLS SD
1100 AM CDT FRI JUL 21 2017

NOTE: "FAIR" INDICATES FEW OR NO CLOUDS BELOW 12,000 FEET WITH NO
SIGNIFICANT WEATHER AND/OR OBSTRUCTIONS TO VISIBILITY.


SDZ001>005-009-010-012>017-211700-
NORTHWEST AND NORTH CENTRAL SOUTH DAKOTA

CITY           SKY/WX    TMP DP  RH WIND       PRES   REMARKS
BUFFALO          N/A     79  61  53 W15       29.81F
FAITH            N/A     80  72  76 VRB6      29.85R
MOBRIDGE       SUNNY     83  72  69 CALM      29.80S
$$

SDZ012>016-024>037-041>051-057-063-072>074-211700-
SOUTHWEST AND SOUTH CENTRAL SOUTH DAKOTA

CITY           SKY/WX    TMP DP  RH WIND       PRES   REMARKS
RAPID CTY ARPT CLOUDY    79  66  64 SW6       29.90S
PIERRE         NOT AVBL
CUSTER         CLOUDY    79  48  33 VRB7      30.06R
ELLSWORTH AFB  CLOUDY    81  65  57 CALM      29.90S
PHILIP         SUNNY     84  68  58 W5        29.83R
PINE RIDGE     SUNNY     83  67  58 W9        29.92S
SPEARFISH      FAIR      81  55  41 NW18G24   29.96S
WINNER         FAIR      85  72  65 CALM      29.83R
$$

SDZ004>011-016>023-039-040-211700-
NORTHEAST SOUTH DAKOTA

CITY           SKY/WX    TMP DP  RH WIND       PRES   REMARKS
ABERDEEN       PTSUNNY   82  73  74 S12       29.80S
WATERTOWN      PTSUNNY   81  71  71 S8        29.80R
BROOKINGS      CLOUDY    76  70  82 SE13      29.81R
SISSETON         N/A     79  73  82 S7        29.80R
$$

SDZ017-020-022-023-036>040-048>070-211700-
SOUTHEAST SOUTH DAKOTA

CITY           SKY/WX    TMP DP  RH WIND       PRES   REMARKS
SIOUX FALLS    CLOUDY    74  71  91 SE9       29.80F
HURON          CLOUDY    80  71  74 VRB3      29.80R
CHAMBERLAIN    MOSUNNY   84  75  73 SE9       29.81S
MITCHELL       MOSUNNY   81  70  69 SE15      29.80S
YANKTON        CLOUDY    80  71  74 SE12      29.78S
$$

ABBREVIATIONS USED IN REMARKS
   TC - TEMPERATURE IN CELSIUS
  WCI - WIND CHILL INDEX
   HX - HEAT INDEX
  VSB - VISIBILITY





USA.gov is the U.S. government's official web portal to all federal, state and local government web resources and services.